CW7731 Weather Reports


Display with metric or nautical units.
time (UTC)temp
F
wind
direction
speed
MPH
gust
MPH
rain 1hr
in
rain 24hr
in
rain mn
in
humidity
%
barometer
mb
20260502152117 75 187 1.0 15.0 0.00 0.00 0.00 34 1019.1
20260502151139 75 186 2.0 13.0 0.00 0.00 0.00 33 1019.1
20260502150131 75 190 3.0 12.0 0.00 0.00 0.00 33 1019.1
20260502130131 75 188 1.0 20.0 0.00 0.00 0.00 31 1020.5
20260502123122 75 232 1.0 21.0 0.00 0.00 0.00 31 1020.8
20260502122139 74 172 2.0 20.0 0.00 0.00 0.00 33 1020.9
20260502121113 75 201 6.0 16.0 0.00 0.00 0.00 32 1021.1
20260502120131 74 195 4.0 18.0 0.00 0.00 0.00 32 1021.2
20260502115138 74 191 2.0 18.0 0.00 0.00 0.00 32 1021.4
20260502114125 74 197 4.0 14.0 0.00 0.00 0.00 32 1021.4
20260502113112 74 201 1.0 13.0 0.00 0.00 0.00 31 1021.6
20260502112105 74 196 3.0 13.0 0.00 0.00 0.00 32 1021.7
20260502111101 74 223 1.0 13.0 0.00 0.00 0.00 33 1021.9
20260502110134 73 211 2.0 14.0 0.00 0.00 0.00 33 1022.0
20260502105120 73 202 0.0 12.0 0.00 0.00 0.00 34 1022.1
20260502104124 73 217 2.0 11.0 0.00 0.00 0.00 33 1022.2
20260502103132 73 193 1.0 10.0 0.00 0.00 0.00 33 1022.2
20260502102103 73 216 0.0 15.0 0.00 0.00 0.00 33 1022.5
20260502101120 73 255 1.0 15.0 0.00 0.00 0.00 32 1022.6
20260502100136 72 202 3.0 13.0 0.00 0.00 0.00 33 1022.8
20260502091127 71 181 1.0 7.0 0.00 0.00 0.00 35 1023.1
20260502090118 71 171 0.0 5.0 0.00 0.00 0.00 38 1023.3
20260502071108 64 329 0.0 0.0 0.00 0.00 0.00 42 1024.0
20260502070116 64 329 0.0 0.0 0.00 0.00 0.00 44 1024.1
20260502065107 63 329 0.0 0.0 0.00 0.00 0.00 46 1024.2
20260502064146 60 329 0.0 0.0 0.00 0.00 0.00 52 1024.3
20260502063108 58 329 0.0 0.0 0.00 0.00 0.00 55 1024.4
20260502062108 57 330 0.0 1.0 0.00 0.00 0.00 57 1024.4
20260502061113 56 315 0.0 0.0 0.00 0.00 0.00 57 1024.4
20260502060143 55 315 0.0 0.0 0.00 0.00 0.00 58 1024.4
20260502055134 54 316 0.0 0.0 0.00 0.00 0.00 61 1024.6
20260502054126 53 316 0.0 0.0 0.00 0.00 0.00 62 1024.6
20260502045101 51 306 0.0 0.0 0.00 0.00 0.00 64 1024.4
20260502044118 51 305 0.0 0.0 0.00 0.00 0.00 64 1024.4
20260502043137 50 304 0.0 0.0 0.00 0.00 0.00 65 1024.4
20260502042146 50 303 0.0 0.0 0.00 0.00 0.00 66 1024.4
20260502041127 50 297 0.0 0.0 0.00 0.00 0.00 66 1024.4
20260502040144 50 295 0.0 0.0 0.00 0.00 0.00 66 1024.4
20260502035110 50 295 0.0 0.0 0.00 0.00 0.00 66 1024.4
20260502034141 49 295 0.0 0.0 0.00 0.00 0.00 65 1024.3
20260502033117 50 290 0.0 0.0 0.00 0.00 0.00 65 1024.3
20260502032105 50 290 0.0 0.0 0.00 0.00 0.00 65 1024.3
20260502031103 50 290 0.0 0.0 0.00 0.00 0.00 64 1024.3
20260502030136 50 286 0.0 0.0 0.00 0.00 0.00 64 1024.3
20260502025143 51 286 0.0 0.0 0.00 0.00 0.00 63 1024.3
20260502024130 51 302 0.0 1.0 0.00 0.00 0.00 62 1024.3
20260502023112 51 318 0.0 0.0 0.00 0.00 0.00 63 1024.3
20260502022142 51 301 0.0 2.0 0.00 0.00 0.00 62 1024.4
20260502021134 51 316 0.0 6.0 0.00 0.00 0.00 62 1024.4
20260502015144 52 320 0.0 7.0 0.00 0.00 0.00 61 1024.3
20260502014101 52 321 0.0 4.0 0.00 0.00 0.00 60 1024.3
20260502013120 52 326 0.0 4.0 0.00 0.00 0.00 61 1024.3
20260502012139 51 336 0.0 1.0 0.00 0.00 0.00 62 1024.3
20260502011128 51 332 0.0 1.0 0.00 0.00 0.00 63 1024.3
20260502010125 50 310 0.0 1.0 0.00 0.00 0.00 65 1024.4
20260502005141 50 311 0.0 4.0 0.00 0.00 0.00 64 1024.4
20260502004134 51 308 0.0 1.0 0.00 0.00 0.00 63 1024.4
20260502003124 51 302 0.0 0.0 0.00 0.00 0.00 64 1024.6
20260502002126 51 302 0.0 0.0 0.00 0.00 0.00 63 1024.7
20260502001126 51 298 0.0 2.0 0.00 0.00 0.00 64 1024.7
20260502000133 51 310 0.0 4.0 0.00 0.00 0.00 63 1024.7
20260501235121 51 304 0.0 0.0 0.00 0.00 0.00 62 1024.8
20260501234143 52 305 0.0 0.0 0.00 0.00 0.00 61 1024.9
20260501233108 52 306 0.0 0.0 0.00 0.00 0.00 62 1024.8
20260501232133 52 306 0.0 0.0 0.00 0.00 0.00 62 1024.8